Weather History for Imperial, CA

Change the Weather History Date:

Saturday, November 23, 2013

  Actual Average Record
Temperature  
Mean Temperature 58 °F -  
Max Temperature 63 °F 74 °F 89 °F (1949)
Min Temperature 50 °F 46 °F 34 °F (2003)
Degree Days  
Heating Degree Days 7    
Growing Degree Days 8 (Base 50)    
Moisture  
Dew Point 48 °F    
Average Humidity 73    
Maximum Humidity 93    
Minimum Humidity 56    
Precipitation  
Precipitation 0.00 in - - ()
Sea Level Pressure  
Sea Level Pressure 30.03 in    
Wind  
Wind Speed 3 mph (NW)    
Max Wind Speed 6 mph    
Max Gust Speed -    
Visibility 10 miles    
Events      
Averages and records for this station are not official NWS values.
T = Trace of Precipitation, MM = Missing Value Source: NWS Daily Summary

Daily Weather History Graph

Daily Weather History Graph

Search for Another Location

Airport:

Trip Planner

Search our weather history database for the weather conditions in past years. The results will help you decide how hot, cold, wet, or windy it might be!

Date:

Astronomy

Nov. 23, 2013 Rise Set
Actual Time 6:20 AM PST 4:37 PM PST
Civil Twilight 5:53 AM PST 5:03 PM PST
Nautical Twilight 5:23 AM PST 5:34 PM PST
Astronomical Twilight 4:53 AM PST 6:03 PM PST
Moon 10:02 PM PST (11/23) 10:45 AM PST (11/23)
Length of Visible Light 11h 10m
Length of Day
10h 17m
Waning Gibbous, 68% of the Moon is Illuminated
Nov 23
Waning Gibbous
Nov 25
Last Quarter
Dec 2
New
Dec 9
First Quarter
Dec 17
Full

Hourly Weather History & Observations

Time (PST) Temp. Dew Point Humidity Pressure Visibility Wind Dir Wind Speed Gust Speed Precip Events Conditions
12:53 AM 53.1 °F 48.9 °F 86% 29.97 in 10.0 mi WNW 4.6 mph - N/A   Overcast
1:53 AM 54.0 °F 48.9 °F 83% 29.98 in 10.0 mi WSW 4.6 mph - N/A   Overcast
2:53 AM 53.1 °F 48.0 °F 83% 29.99 in 10.0 mi NW 3.5 mph - N/A   Overcast
3:53 AM 54.0 °F 46.9 °F 77% 29.99 in 10.0 mi NNE 3.5 mph - N/A   Overcast
4:53 AM 53.1 °F 48.0 °F 83% 30.00 in 10.0 mi Calm Calm - N/A   Overcast
5:53 AM 53.1 °F 48.0 °F 83% 30.01 in 10.0 mi Calm Calm - N/A   Overcast
6:53 AM 53.1 °F 50.0 °F 89% 30.03 in 10.0 mi Calm Calm - N/A   Overcast
7:53 AM 55.0 °F 48.9 °F 80% 30.04 in 10.0 mi Calm Calm - N/A   Overcast
8:53 AM 57.0 °F 46.9 °F 69% 30.05 in 10.0 mi Calm Calm - N/A   Overcast
9:53 AM 57.9 °F 46.9 °F 67% 30.06 in 10.0 mi Calm Calm - N/A   Overcast
10:53 AM 59.0 °F 46.9 °F 64% 30.05 in 10.0 mi NW 4.6 mph - N/A   Overcast
11:09 AM 59.0 °F 46.9 °F 64% 30.04 in 10.0 mi West 4.6 mph - N/A   Overcast
11:46 AM 59.0 °F 46.9 °F 64% 30.03 in 10.0 mi Calm Calm - N/A   Mostly Cloudy
11:53 AM 61.0 °F 46.9 °F 60% 30.03 in 10.0 mi NW 5.8 mph - N/A   Mostly Cloudy
12:53 PM 62.1 °F 46.9 °F 58% 30.01 in 10.0 mi NW 5.8 mph - N/A   Scattered Clouds
1:53 PM 62.1 °F 46.9 °F 58% 30.00 in 10.0 mi NNE 5.8 mph - N/A   Overcast
2:53 PM 63.0 °F 46.9 °F 56% 30.01 in 10.0 mi Variable 5.8 mph - N/A   Scattered Clouds
3:53 PM 62.1 °F 46.9 °F 58% 30.01 in 10.0 mi Variable 3.5 mph - N/A   Partly Cloudy
4:53 PM 61.0 °F 48.0 °F 62% 30.02 in 10.0 mi Calm Calm - N/A   Mostly Cloudy
5:53 PM 57.9 °F 48.9 °F 72% 30.04 in 10.0 mi Calm Calm - N/A   Clear
6:53 PM 57.9 °F 48.0 °F 70% 30.06 in 10.0 mi Calm Calm - N/A   Scattered Clouds
7:53 PM 57.9 °F 48.9 °F 72% 30.07 in 10.0 mi Calm Calm - N/A   Mostly Cloudy
8:53 PM 55.9 °F 48.9 °F 77% 30.08 in 10.0 mi Calm Calm - N/A   Clear
9:53 PM 54.0 °F 48.9 °F 83% 30.09 in 10.0 mi Calm Calm - N/A   Mostly Cloudy
10:53 PM 53.1 °F 48.9 °F 86% 30.09 in 10.0 mi Calm Calm - N/A   Clear
11:53 PM 50.0 °F 48.0 °F 93% 30.09 in 8.0 mi West 3.5 mph - N/A   Partly Cloudy